Location: El Gallo
(32.4380°N, 116.9347°W)
Time: 19:21:15
(UTC+00:00)

Cosmos 44 Rocket - Pass Details

Date: 01 October 2022
Orbit: 655 x 733 km, 65.1° (Epoch: 01 December)

Event Time Altitude Azimuth Distance (km) Brightness Sun altitude
Exits shadow 12:14:16 24° 316° (NW) 1,356 4.5 -19.3°
Drops below altitude 10° 12:17:34 10° 1° (N) 2,068 5.8 -18.6°
Sets 12:20:15 0° 15° (NNE) 2,983 6.9 -18.0°
